SCP
0 0 0 0 0 0 0 0 0 0 0 0 0 0 0 0 0 0 0 0 0 0 0 0 0 0 0 0 0 0 0 0 0 0 0 0 0 0 0 0 0 0 0 0
0 0 0 0 0 0 0 0 0 0 0 0 0 0 0 0 0 0 0 0 0 0 0 0 0 0 0 0 0 0 0 0 0 0 0 0 0 0 0 0 0 0 0 0
0 0 0 0 0 0 0 0 0 0 0 0 0 0 0 0 0 0 0 0 0 0 0 0 0 0 0 0 0 0 0 0 0 0 0 0 0 0 0 0 0 0 0 0
0 0 0 0 0 0 0 0 0 0 0 0 0 0 0 0 0 0 0 0 0 0 0 0 0 0 0 0 0 0 0 0 0 0 0 0 0 0 0 0 0 0 0 0
0 0 0 0 0 0 0 0 0 0 0 0 0 0 0 0 0 0 0 0 0 0 0 0 0 0 0 0 0 0 0 0 0 0 0 0 0 0 0 0 0 0 0 0
0 0 0 0 0 0 0 0 0 0 0 0 0 0 0 0 0 0 0 0 0 0 0 0 0 0 0 0 0 0 0 0 0 0 0 0 0 0 0 0 0 0 0 0
0 0 0 0 0 0 0 0 0 0 0 0 0 0 0 0 0 0 0 0 0 0 0 0 0 0 0 0 0 0 0 0 0 0 0 0 0 0 0 0 0 0 0 0
0 0 0 0 0 0 0 0 0 0 0 0 0 0 0 0 0 0 0 0 0 0 0 0 0 0 0 0 0 0 0 0 0 0 0 0 0 0 0 0 0 0 0 0
0 0 0 0 0 0 0 0 0 0 0 0 0 0 0 0 0 0 0 0 0 0 0 0 0 0 0 0 0 0 0 0 0 0 0 0 0 0 0 0 0 0 0 0
0 0 0 0 0 0 0 0 0 0 0 0 0 0 0 0 0 0 0 0 0 0 0 0 0 0 0 0 0 0 0 0 0 0 0 0 0 0 0 0 0 0 0 0
0 0 0 0 0 0 0 0 0 0 0 0 0 0 0 0 0 0 0 0 0 0 0 0 0 0 0 0 0 0 0 0 0 0 0 0 0 0 0 0 0 0 0 0
0 0 0 0 0 0 0 0 0 0 0 0 0 0 0 0 0 0 0 0 0 0 0 0 0 0 0 0 0 0 0 0 0 0 0 0 0 0 0 0 0 0 0 0
0 0 0 0 0 0 0 0 0 0 0 0 0 0 0 0 0 0 0 0 0 0 0 0 0 0 0 0 0 0 0 0 0 0 0 0 0 0 0 0 0 0 0 0
0 0 0 0 0 0 0 0 0 0 0 0 0 0 0 0 0 0 0 0 0 0 0 0 0 0 0 0 0 0 0 0 0 0 0 0 0 0 0 0 0 0 0 0
0 0 0 0 0 0 0 0 0 0 0 0 0 0 0 0 0 0 0 0 0 0 0 0 0 0 0 0 0 0 0 0 0 0 0 0 0 0 0 0 0 0 0 0
0 0 0 0 0 0 0 0 0 0 0 0 0 0 0 0 0 0 0 0 0 0 0 0 0 0 0 0 0 0 0 0 0 0 0 0 0 0 0 0 0 0 0 0
0 0 0 0 0 0 0 0 0 0 0 0 0 0 0 0 0 0 0 0 0 0 0 0 0 0 0 0 0 0 0 0 0 0 0 0 0 0 0 0 0 0 0 0
0 0 0 0 0 0 0 0 0 0 0 0 0 0 0 0 0 0 0 0 0 0 0 0 0 0 0 0 0 0 0 0 0 0 0 0 0 0 0 0 0 0 0 0
0 0 0 0 0 0 0 0 0 0 0 0 0 0 0 0 0 0 0 0 0 0 0 0 0 0 0 0 0 0 0 0 0 0 0 0 0 0 0 0 0 0 0 0
0 0 0 0 0 0 0 0 0 0 0 0 0 0 0 0 0 0 0 0 0 0 0 0 0 0 0 0 0 0 0 0 0 0 0 0 0 0 0 0 0 0 0 0
0 0 0 0 0 0 0 0 0 0 0 0 0 0 0 0 0 0 0 0 0 0 0 0 0 0 0 0 0 0 0 0 0 0 0 0 0 0 0 0 0 0 0 0
0 0 0 0 0 0 0 0 0 0 0 0 0 0 0 0 0 0 0 0 0 0 0 0 0 0 0 0 0 0 0 0 0 0 0 0 0 0 0 0 0 0 0 0
0 0 0 0 0 0 0 0 0 0 0 0 0 0 0 0 0 0 0 0 0 0 0 0 0 0 0 0 0 0 0 0 0 0 0 0 0 0 0 0 0 0 0 0
0 0 0 0 0 0 0 0 0 0 0 0 0 0 0 0 0 0 0 0 0 0 0 0 0 0 0 0 0 0 0 0 0 0 0 0 0 0 0 0 0 0 0 0
0 0 0 0 0 0 0 0 0 0 0 0 0 0 0 0 0 0 0 0 0 0 0 0 0 0 0 0 0 0 0 0 0 0 0 0 0 0 0 0 0 0 0 0
0 0 0 0 0 0 0 -0 -0 0 0 0 0 0 0 0 0 0 0 0 0 0 0 0 0 0 0 0 0 0 0 0 0 0 0 0 0 0 0 0 0 0 0 0
Wind_Speed_500mb
21 19 30 38 35 37 23 24 28 22 8 9 27 31 24 34 30 30 27 23 19 16 14 18 21 23 27 30 33 34 37 36 32 34 34 34 31 25 23 18 13 8 4 4
9 32 38 30 21 33 32 33 34 29 8 9 27 37 32 33 42 39 34 30 27 22 19 24 29 32 35 38 41 42 44 47 42 37 33 31 30 26 19 19 18 15 11 7
36 15 15 26 20 24 32 35 30 31 1 22 27 42 45 43 29 26 31 31 29 31 29 28 33 34 40 41 42 42 39 38 36 32 32 30 33 36 33 29 24 21 16 13
33 42 13 20 31 28 34 31 30 27 16 21 8 21 19 31 29 32 40 40 38 37 33 31 37 37 42 45 45 44 42 41 42 40 40 40 38 36 33 28 23 18 14 11
12 16 24 34 32 26 17 3 15 22 26 31 36 17 16 11 27 37 45 48 47 44 40 39 40 45 48 49 49 47 47 46 42 38 33 30 31 31 29 25 20 15 12 10
33 5 20 22 4 19 20 11 4 7 17 26 36 34 28 25 29 31 46 53 52 49 43 40 47 50 51 52 50 47 44 41 38 35 32 29 28 27 24 19 13 12 9 8
36 36 12 13 12 7 27 16 9 10 11 17 4 27 34 9 12 22 49 63 62 55 51 50 56 53 53 51 49 46 42 40 40 38 35 31 26 23 20 14 11 8 6 4
29 20 47 36 47 23 34 36 14 13 15 13 4 19 14 3 20 12 49 61 63 60 56 55 56 56 56 54 50 47 45 42 39 34 32 29 27 24 19 15 13 9 6 3
21 20 4 17 23 33 20 29 30 9 3 8 15 17 11 13 14 17 49 62 67 66 63 64 60 58 58 57 53 49 44 40 39 37 35 32 27 23 20 17 15 12 8 4
4 13 7 11 6 15 16 19 14 13 12 15 17 26 19 22 30 30 39 58 62 63 62 62 64 64 60 55 51 48 47 44 39 37 35 33 29 26 23 19 15 11 7 1
17 9 9 11 24 36 15 20 20 16 18 7 9 14 19 29 36 43 41 62 70 72 72 74 74 70 64 59 56 53 50 46 42 39 36 34 32 28 24 20 15 11 6 3
24 6 16 36 9 28 39 30 42 13 13 19 14 21 4 5 25 42 50 59 67 73 75 74 76 73 69 66 62 59 54 49 46 44 43 40 36 31 25 21 16 13 8 7
24 11 6 8 14 7 20 30 35 40 3 31 15 16 5 8 15 38 46 56 64 67 66 68 69 78 78 73 67 63 58 53 51 51 47 44 39 33 30 24 20 16 12 14
36 12 20 34 13 21 22 37 43 33 20 47 39 24 9 18 25 33 43 51 61 70 71 71 72 82 83 76 73 67 61 58 56 54 51 50 45 38 33 28 23 21 21 23
27 19 36 50 47 21 17 31 49 50 67 34 70 45 27 30 31 45 47 46 53 62 69 77 80 83 80 79 72 65 62 60 60 59 58 57 49 43 38 33 29 30 30 30
9 16 27 41 51 47 44 24 49 64 65 62 67 51 20 39 32 33 48 53 58 64 76 80 77 72 78 81 79 70 61 61 64 64 63 59 52 49 44 38 37 35 36 38
17 13 15 30 24 35 15 62 42 50 61 45 57 63 8 10 16 32 39 49 58 65 75 74 79 80 84 87 81 68 58 62 66 66 62 59 57 52 48 45 43 43 45 47
13 16 11 11 7 21 22 12 36 60 48 45 35 6 5 13 35 32 25 41 55 58 56 60 65 66 75 78 65 62 62 65 65 63 60 60 57 55 52 51 49 51 52 53
9 11 8 10 20 24 32 9 15 26 47 42 30 16 17 24 23 29 50 48 46 51 54 58 59 60 59 57 58 59 58 57 57 59 61 58 57 58 57 54 53 54 55 57
1 7 8 7 10 15 9 9 7 13 24 15 27 23 21 32 14 20 50 39 39 36 35 36 37 39 44 49 47 45 45 47 50 56 54 51 53 55 54 52 52 52 54 55
8 6 23 21 11 10 3 13 14 14 5 5 39 43 44 21 19 19 37 43 37 35 34 33 37 43 40 38 36 37 38 41 39 41 44 44 45 48 50 52 54 53 51 54
21 20 11 11 10 21 19 12 16 3 7 23 34 42 50 30 25 28 41 43 42 42 40 36 34 31 30 31 33 35 35 33 36 40 41 43 46 51 56 58 58 57 56 57
11 9 8 10 2 5 16 6 8 5 4 8 22 33 35 35 28 39 47 47 45 39 33 26 21 23 30 35 37 36 33 37 39 42 45 49 53 57 60 62 62 62 59 60
7 6 2 5 5 8 4 10 5 4 11 12 18 26 35 40 39 45 50 47 41 34 29 26 24 25 35 39 37 36 36 39 43 47 53 57 60 62 63 64 64 63 62 62
3 13 12 7 3 5 14 19 20 31 25 19 23 26 32 36 42 43 44 39 33 30 28 27 26 32 40 40 38 42 47 50 52 54 57 60 61 62 63 63 63 63 63 62
11 9 9 5 29 15 25 39 39 44 40 29 29 30 28 26 29 36 39 36 33 31 31 31 37 39 45 46 47 52 56 59 58 59 59 59 58 59 58 60 62 64 66 66
Wind_Direction_500mb
203 218 222 227 228 251 280 284 263 267 104 263 243 253 232 202 213 220 218 214 208 199 208 195 178 163 149 144 140 139 140 139 147 152 152 157 158 156 153 147 147 153 157 174
188 230 240 246 272 239 246 254 257 268 156 249 268 264 257 205 216 220 220 211 200 188 174 175 172 165 156 151 148 147 148 144 147 154 158 166 157 156 158 146 143 138 138 142
228 237 241 223 222 226 238 246 253 258 339 241 272 269 252 237 215 218 222 209 197 185 169 168 167 166 162 160 157 156 159 162 162 164 163 162 150 140 136 131 125 116 107 95
250 244 196 200 229 216 248 234 249 262 253 262 170 282 273 211 210 214 211 200 190 178 168 163 162 161 162 162 162 162 162 162 158 152 148 146 146 144 136 132 124 114 106 96
214 183 203 223 226 203 252 71 225 243 254 270 254 267 273 192 221 212 205 199 188 180 173 164 162 161 158 155 154 152 151 151 152 152 152 151 147 140 135 130 126 124 113 93
260 30 219 221 186 200 132 118 111 255 260 256 240 230 259 210 227 202 193 193 184 178 173 169 168 162 160 158 158 158 159 159 159 157 153 152 152 147 138 129 124 113 99 76
228 223 195 174 153 160 197 183 246 241 210 256 314 215 249 199 186 205 184 186 183 179 177 176 173 168 164 162 161 159 161 163 161 162 161 159 156 153 150 149 154 148 130 88
214 227 202 201 215 199 200 200 200 241 236 267 24 236 240 313 121 163 184 183 181 181 181 182 179 175 171 168 167 168 170 172 170 171 172 170 170 170 169 173 173 162 152 144
207 241 261 182 223 215 179 224 229 312 146 274 216 250 242 165 179 180 176 180 183 183 184 185 184 181 178 177 175 176 178 181 181 181 181 180 180 180 181 181 180 181 189 191
241 265 161 154 187 262 222 172 184 212 226 237 242 241 236 209 197 185 182 186 184 184 186 186 188 187 187 185 183 184 185 187 188 189 189 188 188 188 188 187 191 190 181 174
223 219 143 143 202 190 185 212 220 215 224 250 279 246 194 201 190 188 187 186 185 187 187 189 192 192 191 191 191 191 192 193 193 197 198 197 195 195 193 194 196 200 208 284
196 173 235 230 214 235 223 215 206 208 196 232 274 257 102 106 183 180 185 188 190 191 189 190 195 197 195 196 197 200 199 199 201 204 203 204 205 200 202 204 206 217 240 292
160 194 202 251 213 189 226 216 228 230 310 231 203 249 101 129 159 182 185 187 190 190 190 191 194 200 202 201 202 204 205 205 207 210 209 210 209 210 212 214 220 237 261 294
158 157 207 229 229 153 201 207 208 217 228 240 235 250 177 206 187 181 186 188 187 188 191 193 197 203 206 204 206 207 208 210 212 214 214 217 217 217 220 224 233 250 266 279
175 220 218 243 255 251 199 204 203 207 226 214 245 237 219 202 195 193 182 178 185 190 193 197 199 203 206 208 209 209 212 215 218 219 218 221 219 221 226 233 242 253 263 273
195 233 224 249 246 244 252 244 215 215 228 230 246 250 237 199 192 167 178 178 187 193 198 200 201 201 206 211 212 212 216 222 223 223 223 224 223 226 232 239 248 257 265 272
186 211 209 246 239 252 257 231 233 233 227 228 236 243 107 122 176 192 182 184 194 201 203 200 201 206 210 214 215 216 224 228 228 227 227 227 229 231 237 244 253 263 269 272
179 196 222 261 94 227 247 241 232 231 238 227 242 168 114 164 172 214 220 229 221 208 202 201 202 204 217 221 224 225 231 233 234 230 230 231 233 235 240 248 257 264 270 274
216 188 212 224 225 287 287 194 182 194 242 231 226 147 117 116 175 226 227 227 219 217 212 212 216 219 223 219 219 225 231 233 234 232 232 233 235 237 244 253 261 267 272 274
169 293 221 156 233 234 332 100 119 100 260 182 167 163 137 134 199 231 219 206 200 192 192 197 205 204 200 207 214 221 226 231 232 229 230 233 236 240 250 258 263 267 271 273
155 196 226 224 234 261 172 147 150 166 277 131 170 163 157 180 208 188 185 187 191 192 191 190 189 198 204 208 215 221 227 232 234 228 231 236 241 246 253 256 257 262 268 273
176 176 197 213 227 248 144 121 189 335 88 158 169 175 178 177 179 168 178 181 176 174 172 174 181 191 203 214 221 224 226 225 226 231 236 240 247 254 256 256 258 261 266 270
201 216 188 215 213 337 169 17 195 69 144 174 186 198 200 192 183 177 173 171 171 172 174 181 192 204 215 220 223 221 224 227 233 237 243 249 255 257 259 258 259 259 263 268
224 185 208 155 19 352 249 43 110 209 244 241 219 202 193 189 180 171 169 170 174 180 186 189 195 211 220 220 226 230 232 238 243 248 253 257 259 259 259 259 259 259 264 268
85 157 137 86 22 102 227 233 217 230 238 212 197 197 189 184 178 182 180 182 188 192 197 210 227 235 228 225 234 235 241 246 250 256 260 260 261 261 260 259 259 262 265 267
189 158 170 172 180 169 202 202 215 221 227 205 183 174 185 197 202 202 197 198 200 207 216 230 237 240 232 233 238 242 247 251 255 259 261 261 260 260 258 259 261 265 269 272
Wind_Speed_850mb
21 19 30 38 35 37 23 24 28 22 8 9 27 31 24 34 30 30 27 23 19 16 14 18 21 23 27 30 33 34 37 36 32 34 34 34 31 25 23 18 13 8 4 4
9 32 38 30 21 33 32 33 34 29 8 9 27 37 32 33 42 39 34 30 27 22 19 24 29 32 35 38 41 42 44 47 42 37 33 31 30 26 19 19 18 15 11 7
36 15 15 26 20 24 32 35 30 31 1 22 27 42 45 43 29 26 31 31 29 31 29 28 33 34 40 41 42 42 39 38 36 32 32 30 33 36 33 29 24 21 16 13
33 42 13 20 31 28 34 31 30 27 16 21 8 21 19 31 29 32 40 40 38 37 33 31 37 37 42 45 45 44 42 41 42 40 40 40 38 36 33 28 23 18 14 11
12 16 24 34 32 26 17 3 15 22 26 31 36 17 16 11 27 37 45 48 47 44 40 39 40 45 48 49 49 47 47 46 42 38 33 30 31 31 29 25 20 15 12 10
33 5 20 22 4 19 20 11 4 7 17 26 36 34 28 25 29 31 46 53 52 49 43 40 47 50 51 52 50 47 44 41 38 35 32 29 28 27 24 19 13 12 9 8
36 36 12 13 12 7 27 16 9 10 11 17 4 27 34 9 12 22 49 63 62 55 51 50 56 53 53 51 49 46 42 40 40 38 35 31 26 23 20 14 11 8 6 4
29 20 47 36 47 23 34 36 14 13 15 13 4 19 14 3 20 12 49 61 63 60 56 55 56 56 56 54 50 47 45 42 39 34 32 29 27 24 19 15 13 9 6 3
21 20 4 17 23 33 20 29 30 9 3 8 15 17 11 13 14 17 49 62 67 66 63 64 60 58 58 57 53 49 44 40 39 37 35 32 27 23 20 17 15 12 8 4
4 13 7 11 6 15 16 19 14 13 12 15 17 26 19 22 30 30 39 58 62 63 62 62 64 64 60 55 51 48 47 44 39 37 35 33 29 26 23 19 15 11 7 1
17 9 9 11 24 36 15 20 20 16 18 7 9 14 19 29 36 43 41 62 70 72 72 74 74 70 64 59 56 53 50 46 42 39 36 34 32 28 24 20 15 11 6 3
24 6 16 36 9 28 39 30 42 13 13 19 14 21 4 5 25 42 50 59 67 73 75 74 76 73 69 66 62 59 54 49 46 44 43 40 36 31 25 21 16 13 8 7
24 11 6 8 14 7 20 30 35 40 3 31 15 16 5 8 15 38 46 56 64 67 66 68 69 78 78 73 67 63 58 53 51 51 47 44 39 33 30 24 20 16 12 14
36 12 20 34 13 21 22 37 43 33 20 47 39 24 9 18 25 33 43 51 61 70 71 71 72 82 83 76 73 67 61 58 56 54 51 50 45 38 33 28 23 21 21 23
27 19 36 50 47 21 17 31 49 50 67 34 70 45 27 30 31 45 47 46 53 62 69 77 80 83 80 79 72 65 62 60 60 59 58 57 49 43 38 33 29 30 30 30
9 16 27 41 51 47 44 24 49 64 65 62 67 51 20 39 32 33 48 53 58 64 76 80 77 72 78 81 79 70 61 61 64 64 63 59 52 49 44 38 37 35 36 38
17 13 15 30 24 35 15 62 42 50 61 45 57 63 8 10 16 32 39 49 58 65 75 74 79 80 84 87 81 68 58 62 66 66 62 59 57 52 48 45 43 43 45 47
13 16 11 11 7 21 22 12 36 60 48 45 35 6 5 13 35 32 25 41 55 58 56 60 65 66 75 78 65 62 62 65 65 63 60 60 57 55 52 51 49 51 52 53
9 11 8 10 20 24 32 9 15 26 47 42 30 16 17 24 23 29 50 48 46 51 54 58 59 60 59 57 58 59 58 57 57 59 61 58 57 58 57 54 53 54 55 57
1 7 8 7 10 15 9 9 7 13 24 15 27 23 21 32 14 20 50 39 39 36 35 36 37 39 44 49 47 45 45 47 50 56 54 51 53 55 54 52 52 52 54 55
8 6 23 21 11 10 3 13 14 14 5 5 39 43 44 21 19 19 37 43 37 35 34 33 37 43 40 38 36 37 38 41 39 41 44 44 45 48 50 52 54 53 51 54
21 20 11 11 10 21 19 12 16 3 7 23 34 42 50 30 25 28 41 43 42 42 40 36 34 31 30 31 33 35 35 33 36 40 41 43 46 51 56 58 58 57 56 57
11 9 8 10 2 5 16 6 8 5 4 8 22 33 35 35 28 39 47 47 45 39 33 26 21 23 30 35 37 36 33 37 39 42 45 49 53 57 60 62 62 62 59 60
7 6 2 5 5 8 4 10 5 4 11 12 18 26 35 40 39 45 50 47 41 34 29 26 24 25 35 39 37 36 36 39 43 47 53 57 60 62 63 64 64 63 62 62
3 13 12 7 3 5 14 19 20 31 25 19 23 26 32 36 42 43 44 39 33 30 28 27 26 32 40 40 38 42 47 50 52 54 57 60 61 62 63 63 63 63 63 62
11 9 9 5 29 15 25 39 39 44 40 29 29 30 28 26 29 36 39 36 33 31 31 31 37 39 45 46 47 52 56 59 58 59 59 59 58 59 58 60 62 64 66 66
Wind_Direction_850mb
203 218 222 227 228 251 280 284 263 267 104 263 243 253 232 202 213 220 218 214 208 199 208 195 178 163 149 144 140 139 140 139 147 152 152 157 158 156 153 147 147 153 157 174
188 230 240 246 272 239 246 254 257 268 156 249 268 264 257 205 216 220 220 211 200 188 174 175 172 165 156 151 148 147 148 144 147 154 158 166 157 156 158 146 143 138 138 142
228 237 241 223 222 226 238 246 253 258 339 241 272 269 252 237 215 218 222 209 197 185 169 168 167 166 162 160 157 156 159 162 162 164 163 162 150 140 136 131 125 116 107 95
250 244 196 200 229 216 248 234 249 262 253 262 170 282 273 211 210 214 211 200 190 178 168 163 162 161 162 162 162 162 162 162 158 152 148 146 146 144 136 132 124 114 106 96
214 183 203 223 226 203 252 71 225 243 254 270 254 267 273 192 221 212 205 199 188 180 173 164 162 161 158 155 154 152 151 151 152 152 152 151 147 140 135 130 126 124 113 93
260 30 219 221 186 200 132 118 111 255 260 256 240 230 259 210 227 202 193 193 184 178 173 169 168 162 160 158 158 158 159 159 159 157 153 152 152 147 138 129 124 113 99 76
228 223 195 174 153 160 197 183 246 241 210 256 314 215 249 199 186 205 184 186 183 179 177 176 173 168 164 162 161 159 161 163 161 162 161 159 156 153 150 149 154 148 130 88
214 227 202 201 215 199 200 200 200 241 236 267 24 236 240 313 121 163 184 183 181 181 181 182 179 175 171 168 167 168 170 172 170 171 172 170 170 170 169 173 173 162 152 144
207 241 261 182 223 215 179 224 229 312 146 274 216 250 242 165 179 180 176 180 183 183 184 185 184 181 178 177 175 176 178 181 181 181 181 180 180 180 181 181 180 181 189 191
241 265 161 154 187 262 222 172 184 212 226 237 242 241 236 209 197 185 182 186 184 184 186 186 188 187 187 185 183 184 185 187 188 189 189 188 188 188 188 187 191 190 181 174
223 219 143 143 202 190 185 212 220 215 224 250 279 246 194 201 190 188 187 186 185 187 187 189 192 192 191 191 191 191 192 193 193 197 198 197 195 195 193 194 196 200 208 284
196 173 235 230 214 235 223 215 206 208 196 232 274 257 102 106 183 180 185 188 190 191 189 190 195 197 195 196 197 200 199 199 201 204 203 204 205 200 202 204 206 217 240 292
160 194 202 251 213 189 226 216 228 230 310 231 203 249 101 129 159 182 185 187 190 190 190 191 194 200 202 201 202 204 205 205 207 210 209 210 209 210 212 214 220 237 261 294
158 157 207 229 229 153 201 207 208 217 228 240 235 250 177 206 187 181 186 188 187 188 191 193 197 203 206 204 206 207 208 210 212 214 214 217 217 217 220 224 233 250 266 279
175 220 218 243 255 251 199 204 203 207 226 214 245 237 219 202 195 193 182 178 185 190 193 197 199 203 206 208 209 209 212 215 218 219 218 221 219 221 226 233 242 253 263 273
195 233 224 249 246 244 252 244 215 215 228 230 246 250 237 199 192 167 178 178 187 193 198 200 201 201 206 211 212 212 216 222 223 223 223 224 223 226 232 239 248 257 265 272
186 211 209 246 239 252 257 231 233 233 227 228 236 243 107 122 176 192 182 184 194 201 203 200 201 206 210 214 215 216 224 228 228 227 227 227 229 231 237 244 253 263 269 272
179 196 222 261 94 227 247 241 232 231 238 227 242 168 114 164 172 214 220 229 221 208 202 201 202 204 217 221 224 225 231 233 234 230 230 231 233 235 240 248 257 264 270 274
216 188 212 224 225 287 287 194 182 194 242 231 226 147 117 116 175 226 227 227 219 217 212 212 216 219 223 219 219 225 231 233 234 232 232 233 235 237 244 253 261 267 272 274
169 293 221 156 233 234 332 100 119 100 260 182 167 163 137 134 199 231 219 206 200 192 192 197 205 204 200 207 214 221 226 231 232 229 230 233 236 240 250 258 263 267 271 273
155 196 226 224 234 261 172 147 150 166 277 131 170 163 157 180 208 188 185 187 191 192 191 190 189 198 204 208 215 221 227 232 234 228 231 236 241 246 253 256 257 262 268 273
176 176 197 213 227 248 144 121 189 335 88 158 169 175 178 177 179 168 178 181 176 174 172 174 181 191 203 214 221 224 226 225 226 231 236 240 247 254 256 256 258 261 266 270
201 216 188 215 213 337 169 17 195 69 144 174 186 198 200 192 183 177 173 171 171 172 174 181 192 204 215 220 223 221 224 227 233 237 243 249 255 257 259 258 259 259 263 268
224 185 208 155 19 352 249 43 110 209 244 241 219 202 193 189 180 171 169 170 174 180 186 189 195 211 220 220 226 230 232 238 243 248 253 257 259 259 259 259 259 259 264 268
85 157 137 86 22 102 227 233 217 230 238 212 197 197 189 184 178 182 180 182 188 192 197 210 227 235 228 225 234 235 241 246 250 256 260 260 261 261 260 259 259 262 265 267
189 158 170 172 180 169 202 202 215 221 227 205 183 174 185 197 202 202 197 198 200 207 216 230 237 240 232 233 238 242 247 251 255 259 261 261 260 260 258 259 261 265 269 272